Starlink 5902

operational
NORAD ID: 55998 Int'l Des: 2023-042 Owner: SPXS Country: US Constellation: starlink
LEOCIRCULAR

Starlink 5902について

説明を読み込み中...

リアルタイム位置

3D地球を読み込み中...

次回通過

高度履歴

Altitude vs Time

uPlot chart will show altitude changes over time

軌道要素

1 55998U 23042N 25349.93912623 .00000221 00000-0 31412-4 0 9995
2 55998 43.0027 151.0594 0001264 259.2314 100.8386 15.02537436150310
Epoch: Dec 15, 2025 • Age: 26 hours

現在のステータス

高度 559.7 km
速度 7.58 km/s
衛星直下点 -6.28°S, 127.65°W
打ち上げ日 Mar 24, 2023
運用期間 2.7 years
タイプ internet

技術仕様

分類 Payload
質量 305.00 kg
乾燥質量 290.00 kg
総質量 305.00 kg
長さ 0.20 m
直径 2.80 m
スパン 9.00 m
形状 Box + pan
製造者 SPXS
バスタイプ Starlink
フェーズステータス In Orbit
所有者/国 SPXS/US

大規模コンステレーション

Loading constellations...